Temp
21 21 22 24 30 32 31 31 32 31 31 30 31 31 30 28 29 27 23 24 23 23 23 22 22 22 22 22 23 23 23 23 23 23 22 22 22 22 22 22 22 22 22 22 21 21 21 21 20
21 22 23 26 32 33 32 31 31 31 30 31 31 30 29 26 25 24 24 23 24 23 23 23 22 22 22 23 23 23 23 23 23 23 23 22 22 22 22 22 22 22 22 22 21 21 21 21 20
22 23 28 32 31 32 32 31 31 31 31 31 30 29 28 26 24 25 23 23 23 23 23 23 22 22 22 22 22 22 22 22 22 22 22 22 22 22 21 22 22 22 22 22 22 21 21 21 22
23 25 28 33 33 32 32 32 31 31 31 31 30 28 27 26 25 24 23 23 23 23 23 22 22 21 21 22 22 22 22 22 21 21 21 21 22 22 22 22 22 22 22 22 21 21 22 21 21
25 29 33 33 33 33 33 32 31 31 30 30 30 28 26 25 24 23 23 23 23 23 23 22 22 22 22 22 21 21 22 21 22 21 21 21 21 21 21 21 21 22 22 22 22 21 22 21 21
30 30 34 33 33 32 33 32 32 31 30 29 29 28 26 23 23 23 23 23 23 23 23 23 22 22 22 21 21 22 22 21 22 21 21 21 21 22 21 21 21 21 22 22 22 21 22 21 21
32 33 33 33 33 33 33 33 32 31 30 30 29 28 25 24 23 23 23 22 22 23 23 22 22 21 21 21 21 21 21 21 21 21 21 21 21 21 21 21 21 21 22 22 22 22 22 22 21
32 33 32 32 34 34 34 33 32 32 30 30 30 29 28 25 23 22 22 22 22 22 22 22 22 22 22 22 21 21 21 21 22 22 21 21 21 21 21 21 21 21 21 22 22 21 21 22 21
31 34 33 34 33 34 33 33 32 32 31 30 29 29 28 24 23 23 22 22 22 22 21 21 22 21 21 21 21 21 21 21 21 21 21 21 22 22 21 21 22 21 21 21 21 21 21 22 22
34 35 34 34 34 35 34 34 32 31 31 29 28 26 25 23 23 24 24 23 21 21 21 21 22 22 21 22 21 22 22 22 22 22 21 22 22 21 21 21 22 22 21 21 21 21 21 21 22
32 35 34 35 34 34 34 34 33 32 30 31 29 26 25 24 24 25 25 24 23 22 21 21 21 21 21 22 22 21 22 22 21 21 21 21 21 21 21 22 22 22 22 22 22 22 22 21 21
35 34 34 35 34 34 34 34 33 33 33 32 30 27 26 26 25 25 25 24 23 22 22 22 21 21 21 21 21 21 21 21 21 21 21 21 21 21 21 22 22 22 22 22 21 22 22 21 21
35 35 34 35 34 34 33 33 33 32 31 30 28 27 27 27 26 25 25 24 24 23 22 21 20 23 21 21 21 22 21 21 21 21 22 22 22 21 21 22 22 23 22 22 22 22 22 21 21
34 34 34 35 34 34 34 33 33 31 29 29 28 27 28 27 26 26 25 24 24 23 21 21 24 25 24 22 21 21 21 21 21 22 22 22 22 22 23 23 23 22 22 22 22 22 22 22 21
34 36 36 36 35 35 35 33 33 32 30 29 29 28 28 27 26 26 25 25 24 22 22 24 25 26 23 22 21 21 21 21 21 22 22 23 23 23 23 22 23 23 23 23 22 22 21 21 21
34 35 36 35 35 34 36 36 35 31 31 30 29 28 28 27 27 26 26 25 23 22 21 24 24 25 22 21 21 21 21 21 21 21 22 23 23 23 23 23 22 23 23 22 21 22 21 21 21
34 35 34 35 34 34 35 36 34 31 31 30 29 29 28 28 27 26 26 25 24 22 21 23 23 21 20 21 20 19 19 20 21 21 21 22 22 23 23 23 22 23 22 22 21 22 21 21 21
34 34 34 33 34 34 34 34 32 30 31 31 30 29 29 29 29 27 26 25 24 22 21 21 21 18 20 20 19 19 20 20 21 21 22 23 23 23 23 23 23 23 21 21 20 20 21 20 20
33 32 32 33 34 34 34 35 35 31 31 31 30 29 29 30 29 27 26 25 24 22 21 20 19 19 20 19 19 19 19 21 22 22 22 23 23 22 22 23 22 22 21 21 20 20 20 20 19
32 33 34 34 33 34 34 35 33 31 32 32 31 30 30 30 28 27 25 24 23 22 21 21 19 20 20 20 20 20 20 21 22 22 23 23 22 22 23 22 22 21 21 20 20 19 20 20 19
33 34 34 34 33 32 33 34 34 33 31 31 31 31 31 31 29 27 25 24 23 22 21 21 20 20 21 21 20 21 20 21 20 21 22 22 22 22 21 21 21 20 20 20 20 19 19 20 19
34 33 34 33 35 34 31 34 33 33 33 32 31 31 31 31 29 27 26 24 23 22 21 20 21 21 21 21 20 21 21 20 20 20 20 20 21 21 21 20 20 19 19 19 19 19 19 19 19
34 33 33 32 33 33 32 34 35 31 33 33 31 30 32 32 29 28 27 25 23 22 21 20 20 21 21 21 21 21 21 20 20 20 20 20 20 19 18 18 19 19 19 19 19 19 19 18 19
31 32 30 29 32 33 30 31 34 34 32 32 32 31 31 30 29 28 26 23 22 22 21 20 19 20 21 21 21 21 20 20 20 20 20 19 19 19 18 18 18 18 18 19 19 19 19 19 18
32 34 32 32 32 33 28 30 34 33 31 30 30 31 31 29 28 27 25 24 22 22 22 21 19 19 20 20 21 20 20 20 19 19 19 19 19 19 18 18 18 18 18 18 18 18 19 19 18
32 34 33 30 31 32 28 32 35 31 29 29 29 30 31 29 28 27 27 25 24 23 22 21 20 19 19 19 19 19 19 20 19 19 19 19 18 18 17 17 17 18 18 18 18 18 18 18 19
30 32 31 29 26 31 31 32 33 31 31 29 29 29 29 29 28 27 26 25 24 23 23 22 20 20 19 19 19 19 20 19 19 18 18 18 17 17 17 17 17 17 17 17 17 18 18 18 18
32 30 32 31 30 31 31 30 33 33 33 30 29 29 28 27 27 26 25 24 23 24 23 22 21 20 20 20 19 19 19 19 18 18 18 17 17 16 16 16 16 17 16 16 17 17 17 17 17
30 32 29 31 29 32 31 33 32 32 32 30 28 27 27 26 26 26 25 24 24 24 23 22 20 19 19 18 20 20 19 19 18 18 18 17 17 16 16 16 16 16 15 16 16 16 16 16 16
31 32 31 33 28 27 31 33 29 29 28 27 27 26 26 25 26 25 24 23 24 24 22 20 20 19 18 18 20 19 18 18 18 17 17 17 16 16 16 16 16 15 15 15 16 16 16 16 15
Height
781 783 785 784 791 784 801 799 783 786 784 779 777 781 787 789 794 811 800 803 806 811 815 817 818 819 822 824 826 827 829 831 832 834 835 837 838 840 841 843 844 844 846 845 847 848 849 849 851
782 785 786 782 792 802 805 790 793 787 783 778 779 782 787 798 794 797 801 805 808 812 815 817 819 821 823 825 827 829 831 832 834 835 836 838 839 840 841 843 845 846 848 846 847 849 850 851 853
783 785 782 783 796 806 805 791 788 784 778 780 785 783 788 798 798 798 802 806 810 813 816 819 821 823 824 827 828 830 832 833 835 836 837 838 839 841 842 844 844 845 847 847 846 848 850 852 853
784 784 782 789 800 794 793 788 784 785 781 780 783 795 794 799 802 803 806 810 812 815 818 820 822 824 825 827 830 831 833 835 836 837 838 840 840 842 843 844 845 846 847 847 849 849 849 851 853
784 779 787 796 798 790 783 783 784 788 788 787 785 800 801 803 803 804 808 812 814 817 820 823 824 825 826 828 830 832 833 835 836 838 839 840 841 842 843 845 846 846 847 847 849 849 850 852 853
780 779 794 806 800 789 784 781 783 787 789 790 792 796 802 805 807 808 811 813 816 819 821 824 826 827 827 828 830 831 833 835 837 838 839 840 841 842 843 844 845 846 847 847 849 850 850 851 853
779 782 797 798 799 794 786 780 786 789 791 793 789 800 803 805 806 809 812 814 817 821 824 826 828 830 830 832 832 833 833 836 837 838 839 840 841 843 843 844 844 846 848 848 848 850 850 851 853
771 777 795 795 796 794 778 780 780 786 792 786 788 800 802 802 806 809 813 816 819 821 824 827 829 831 833 834 834 836 836 836 837 838 840 841 841 842 843 844 845 846 847 848 849 849 850 851 853
770 784 798 791 794 784 776 783 781 781 788 787 789 792 793 801 806 809 813 817 820 823 824 826 829 830 832 835 836 837 838 838 838 839 839 841 842 843 843 844 844 846 847 848 848 848 849 850 851
771 782 789 776 774 776 773 775 781 787 790 793 794 796 799 804 806 808 810 815 819 822 824 826 829 831 832 834 835 837 838 839 839 839 839 840 841 842 843 843 844 845 846 847 848 848 848 849 851
774 782 775 771 769 769 772 777 776 784 796 786 790 796 799 804 807 808 809 813 817 821 823 824 827 829 831 834 836 836 837 838 838 838 839 839 840 841 842 842 842 843 845 848 848 848 848 848 849
778 773 771 767 766 770 776 773 780 779 780 777 784 791 798 803 805 807 810 813 815 818 822 824 825 827 828 832 834 838 838 837 837 837 837 837 837 838 838 840 840 840 841 845 846 846 846 846 847
773 771 768 764 767 769 771 777 779 780 778 779 787 793 796 802 805 808 810 812 815 818 820 819 819 818 823 827 831 836 838 838 836 835 834 834 834 834 836 836 837 838 838 842 844 843 844 845 845
770 769 769 763 767 768 772 777 776 779 778 784 789 792 795 798 801 806 809 810 813 817 816 816 816 814 815 820 826 829 833 834 836 834 831 831 831 832 833 834 835 837 838 838 841 842 843 842 843
768 773 766 765 766 770 768 786 780 773 776 784 788 791 795 797 800 801 804 807 812 814 814 814 814 816 818 821 822 823 827 830 832 832 832 828 828 828 831 830 832 835 835 836 835 836 838 839 839
777 777 789 773 768 769 767 786 766 770 774 783 787 790 793 793 795 798 801 804 809 811 811 814 816 819 819 820 821 822 824 826 830 828 828 828 826 826 829 829 829 829 831 832 833 833 834 836 837
784 798 796 786 773 774 775 779 768 768 773 781 785 786 789 791 794 796 798 800 804 809 811 813 816 819 819 818 818 819 822 826 826 827 826 825 825 824 825 825 826 826 828 828 829 829 830 832 833
799 800 797 800 780 776 781 781 774 772 773 775 778 782 786 789 788 793 796 798 800 806 809 815 817 818 818 816 816 819 821 824 825 825 823 823 822 823 825 824 824 825 826 826 827 827 827 828 829
791 798 803 790 777 781 780 777 770 771 773 774 777 781 782 784 788 790 794 796 798 803 806 812 817 815 815 816 817 817 819 822 821 820 820 821 822 823 825 822 823 823 824 825 824 825 825 826 827
790 797 795 785 779 776 781 778 774 772 770 770 775 778 780 783 785 786 791 794 796 799 804 810 813 813 814 814 814 816 816 819 818 818 817 819 822 824 823 822 821 821 822 822 822 822 822 822 822
790 791 792 792 785 783 786 785 779 771 772 771 768 768 772 775 780 784 788 791 794 797 801 806 809 811 812 813 814 815 815 815 816 817 818 820 821 821 821 820 820 820 820 820 820 819 819 819 819
791 778 782 787 787 802 793 808 789 778 775 771 766 765 764 769 776 781 783 788 793 797 800 804 806 808 810 811 813 814 813 816 818 818 820 821 821 821 820 819 818 817 817 817 816 815 815 815 816
782 776 783 791 794 798 801 802 782 784 778 772 765 763 760 766 774 775 779 786 790 795 797 801 804 805 809 809 811 813 814 815 817 820 821 821 821 820 820 818 817 816 815 813 813 812 811 812 813
777 785 794 800 798 812 814 810 791 782 782 772 764 762 761 764 769 772 778 786 791 792 796 800 803 804 808 810 811 813 813 815 817 817 820 821 821 820 819 818 816 814 814 812 811 809 809 809 810
777 785 813 820 817 819 815 813 787 774 775 774 769 761 758 764 768 772 777 785 790 792 796 800 803 804 807 810 811 813 814 815 817 818 819 820 821 820 819 817 816 814 813 812 810 809 808 808 808
782 783 806 838 831 816 815 808 781 774 771 768 763 761 759 764 768 773 777 784 789 791 795 800 805 805 807 810 813 817 818 818 817 817 818 819 820 820 818 817 816 814 814 812 810 809 808 808 808
790 792 789 817 834 818 808 793 769 771 768 767 765 764 763 764 770 778 784 786 789 793 797 801 803 806 809 812 816 819 820 820 816 816 818 820 822 820 817 817 817 817 816 814 811 811 810 809 807
773 780 799 802 830 832 813 811 793 773 766 770 769 768 768 769 777 782 786 790 792 794 799 801 805 808 810 813 816 816 820 819 818 816 817 819 820 820 819 818 817 817 818 817 814 813 812 810 808
787 786 797 792 809 812 820 801 769 769 765 772 773 771 772 777 778 780 784 786 790 794 797 800 803 805 806 808 811 814 817 817 818 817 816 818 820 822 821 819 818 819 822 819 816 816 813 812 810
769 775 778 791 821 819 807 793 770 768 770 774 774 774 776 779 778 782 785 787 790 793 797 800 802 805 808 809 812 815 818 820 819 818 817 819 822 824 822 821 822 823 824 821 820 819 816 815 814
Wind_Speed
18 16 10 1 1 4 6 6 5 5 3 3 5 1 4 5 3 2 9 12 22 22 19 16 17 18 17 17 18 18 18 18 18 18 17 18 15 13 12 10 9 7 7 6 8 8 9 9 9
18 14 3 1 3 8 6 4 5 5 8 8 8 4 5 4 4 8 14 14 23 21 20 18 17 18 17 17 17 17 17 17 17 17 16 14 13 13 11 9 8 7 8 8 7 7 10 8 9
17 6 2 2 2 5 5 3 8 7 5 4 3 7 4 4 6 17 9 21 20 20 19 19 18 17 18 17 18 17 16 17 16 16 15 14 13 11 10 9 8 7 9 8 7 7 8 9 10
8 3 1 3 7 4 2 6 6 4 5 6 5 7 5 10 7 5 16 20 19 18 18 20 18 16 17 17 16 16 15 15 14 14 14 13 12 10 10 8 7 7 8 8 9 9 7 10 11
4 1 3 4 5 3 3 7 4 3 3 5 2 4 6 4 7 17 17 17 18 17 17 18 17 16 16 17 16 15 15 13 12 12 13 13 12 10 8 7 6 6 6 7 7 8 7 10 11
3 2 3 3 4 3 4 6 2 3 3 5 8 7 4 6 10 14 17 16 15 17 16 16 16 15 16 16 16 16 15 13 12 11 11 11 10 9 8 6 5 5 6 6 6 6 8 11 10
3 1 3 3 2 0 3 6 2 2 5 3 8 6 3 7 12 15 16 15 15 14 14 14 14 14 14 14 14 15 15 13 11 10 10 10 9 7 6 5 5 4 4 4 6 5 5 10 11
2 1 4 3 4 3 6 9 1 6 2 10 4 4 6 11 16 17 16 15 14 14 14 13 12 12 12 12 13 12 13 13 12 10 9 9 7 8 6 5 4 4 4 4 4 5 5 8 12
4 1 3 4 6 4 9 8 6 3 9 2 1 3 6 21 20 18 16 13 13 13 12 12 13 12 12 11 11 11 11 11 12 11 11 8 7 7 6 7 5 4 3 3 3 5 5 6 11
1 2 1 1 3 5 13 11 11 5 9 2 5 10 20 19 20 20 19 16 14 14 13 13 12 11 11 11 11 11 11 11 11 11 11 10 9 8 7 6 5 4 3 4 4 5 6 6 8
1 3 3 0 3 6 11 9 7 6 8 6 10 16 18 18 17 19 19 19 18 15 13 16 13 12 12 11 11 11 12 11 11 11 11 10 9 9 8 7 6 6 5 5 5 5 6 7 8
2 2 3 2 3 7 10 10 6 10 2 2 14 20 18 14 16 19 17 18 18 17 14 12 12 11 12 10 10 10 10 11 11 12 13 12 11 11 11 10 10 10 8 10 9 8 8 8 8
1 2 3 1 4 6 10 8 4 9 5 12 17 18 17 15 17 17 15 15 15 15 13 14 14 17 15 13 10 10 14 14 15 13 14 14 14 12 10 10 10 9 9 13 12 10 8 9 8
2 3 4 2 4 8 12 6 5 5 11 14 17 17 16 17 20 16 17 17 16 13 15 17 19 20 20 19 14 18 18 19 19 17 15 15 15 14 12 12 10 9 10 10 11 11 11 9 10
2 4 2 1 4 4 9 4 13 9 14 16 16 15 15 15 18 22 21 18 16 17 19 22 20 11 14 19 20 19 17 19 19 20 17 16 16 16 13 12 12 9 11 11 11 12 12 11 11
2 2 3 2 2 3 12 8 12 14 17 16 15 14 14 17 21 20 19 17 17 20 22 25 23 12 14 14 19 21 22 21 18 12 20 17 15 16 14 13 12 13 11 11 9 10 9 11 11
5 2 4 5 4 2 11 4 1 13 14 15 15 15 14 14 16 18 19 19 20 21 22 25 24 12 5 10 18 13 11 5 3 10 10 11 11 12 14 13 12 11 11 12 12 15 13 13 13
2 1 3 5 1 4 8 6 2 11 14 17 16 15 14 14 17 17 17 17 19 20 22 23 29 11 6 4 6 3 7 5 1 2 5 6 7 10 9 8 6 7 7 9 10 13 14 15 16
5 1 4 4 1 3 7 6 7 11 13 14 15 15 15 15 12 16 17 16 16 16 18 19 17 12 7 2 4 6 12 5 1 2 2 2 2 7 7 4 6 6 7 9 9 9 11 12 10
2 2 3 3 5 2 2 3 3 8 9 11 12 13 14 12 12 13 16 16 16 14 15 15 13 8 8 5 5 2 10 5 3 2 3 7 3 5 5 5 5 6 8 9 9 10 10 10 10
3 3 2 2 3 3 2 1 2 1 8 4 11 15 15 16 14 12 14 16 14 14 14 13 12 9 10 6 9 10 11 11 6 6 8 6 3 3 3 5 7 8 10 11 12 12 12 11 8
4 6 3 1 1 2 5 2 4 3 7 6 7 14 17 16 14 12 15 15 14 11 11 13 13 12 11 10 9 12 11 7 5 7 7 4 1 2 4 7 8 9 9 10 11 10 12 11 8
3 3 4 3 3 2 3 3 1 1 4 7 6 7 14 11 13 15 16 13 13 11 14 15 13 13 12 10 11 11 8 8 10 7 5 2 1 3 4 4 5 6 7 8 9 9 11 12 10
11 5 5 3 1 3 1 2 2 3 4 8 7 5 7 8 12 11 13 14 11 10 11 13 13 15 13 15 14 9 10 13 11 8 4 2 2 3 5 5 6 4 3 2 5 7 8 10 13
3 4 1 2 4 2 2 3 4 3 6 8 11 9 5 8 11 11 12 16 15 13 12 11 13 15 13 15 12 10 13 12 10 8 5 4 4 5 7 8 9 7 4 3 3 4 4 6 8
4 4 3 3 3 3 2 3 1 2 5 6 7 9 4 6 9 10 10 12 12 12 14 12 13 15 14 11 10 8 10 8 10 9 7 7 6 7 8 8 10 12 8 4 2 3 1 3 3
5 4 4 6 1 3 1 3 8 3 2 3 4 1 3 5 6 8 9 10 11 9 10 8 11 14 13 9 9 12 11 7 10 10 9 8 7 8 9 8 9 9 10 8 7 6 6 5 5
2 9 4 1 5 4 2 3 3 3 5 1 2 0 1 2 3 6 10 11 9 9 8 7 7 7 8 10 11 14 11 10 10 12 12 11 10 10 9 9 10 9 8 8 9 10 9 10 9
4 4 5 4 2 4 3 3 5 6 3 1 3 3 4 6 4 7 11 13 11 9 8 7 7 6 8 14 15 14 13 11 9 11 13 12 10 9 10 12 12 12 9 8 11 12 14 15 14
1 5 6 5 5 0 2 4 1 4 2 2 1 4 7 7 3 6 9 11 12 10 9 8 10 9 8 13 15 13 11 10 11 12 14 12 11 10 11 11 12 10 9 11 13 13 13 14 15
Wind_Direction
141 146 151 207 178 84 63 53 350 73 76 55 105 55 80 39 15 46 141 158 151 149 151 151 151 151 147 146 147 150 149 146 145 151 158 158 155 152 149 149 152 157 135 128 133 139 138 134 138
145 143 158 243 58 81 70 12 57 48 101 89 79 77 58 66 55 121 140 156 153 150 154 157 156 151 149 150 149 151 152 148 151 155 158 162 161 157 156 156 161 158 142 147 146 154 145 143 143
147 147 274 30 63 52 84 85 118 106 32 70 101 47 24 36 107 138 146 152 153 153 158 161 157 153 151 153 154 154 152 150 151 153 156 157 159 161 158 160 161 153 153 164 155 159 149 154 146
155 201 190 31 48 64 50 137 141 104 72 63 75 69 77 91 129 138 143 151 152 155 158 163 161 156 152 153 156 158 158 156 155 154 155 158 159 160 163 162 157 149 142 155 163 178 158 167 161
188 210 56 64 22 356 93 140 148 27 61 85 81 98 92 49 116 138 147 155 156 155 159 164 167 161 159 159 160 162 162 161 160 157 159 158 159 163 166 161 162 157 150 148 161 170 167 176 168
161 271 78 60 16 13 115 146 139 39 62 111 94 110 100 117 135 142 150 156 159 157 159 166 170 169 168 168 166 166 167 167 165 161 163 166 166 169 173 172 178 174 164 158 153 166 167 184 173
278 164 93 135 97 290 170 161 208 98 131 101 121 122 104 151 150 149 152 154 154 159 160 165 171 176 174 175 176 173 167 172 175 170 173 174 167 173 183 187 184 190 187 165 154 158 168 179 176
219 156 123 170 184 240 171 167 177 156 90 132 137 148 163 163 152 148 150 151 156 164 166 171 176 182 184 184 185 187 179 177 173 182 182 177 183 185 199 196 193 183 185 177 167 149 178 179 185
184 151 151 194 174 189 158 186 139 117 145 142 87 126 133 148 149 148 149 154 161 170 174 180 187 190 191 188 195 196 194 191 185 192 185 185 194 197 205 208 195 186 197 209 189 175 176 185 191
191 83 136 234 233 205 172 186 158 153 167 150 100 95 135 150 160 162 168 168 175 180 182 187 192 201 198 197 197 199 201 200 202 197 190 192 200 205 200 207 212 211 212 227 216 204 193 177 188
156 116 190 50 224 184 180 163 167 154 213 206 169 148 155 160 173 179 180 181 183 185 186 191 194 199 205 211 211 207 205 207 211 207 206 204 203 209 217 217 215 226 235 233 238 223 211 201 190
252 103 232 106 163 169 178 149 182 196 60 262 157 156 161 170 182 189 185 185 187 189 187 191 204 213 214 219 223 233 228 220 215 215 215 217 219 218 224 222 226 237 226 243 224 219 214 210 206
74 11 227 197 186 163 146 177 191 222 59 124 142 159 168 180 192 198 195 196 193 187 178 194 197 213 221 220 223 259 257 246 233 224 224 226 230 227 226 236 243 256 249 241 241 237 227 218 220
297 287 284 240 147 173 187 172 184 157 133 140 155 171 177 186 194 195 201 203 195 178 181 199 215 224 220 215 215 220 241 253 255 246 234 236 235 239 244 245 253 248 243 241 245 239 244 235 229
17 329 60 18 133 171 177 199 228 157 161 161 172 180 183 197 197 203 204 205 194 185 189 204 215 225 247 219 214 214 223 246 262 257 260 240 241 246 247 251 251 242 248 251 258 249 247 247 240
60 59 330 11 217 156 196 257 227 168 169 174 181 186 193 201 208 207 204 202 193 183 198 205 213 230 247 223 217 219 225 238 243 262 252 253 247 247 250 263 254 248 250 247 251 251 246 246 244
35 333 325 350 298 229 217 254 215 175 182 180 186 195 198 205 213 215 210 199 197 191 191 206 203 212 261 238 232 229 216 206 181 248 262 263 252 247 241 245 256 240 248 250 250 260 258 258 247
162 14 298 274 20 216 210 268 149 188 194 193 191 194 203 210 216 211 214 206 203 193 200 197 206 218 260 306 239 229 197 193 349 266 256 255 250 239 234 228 212 233 238 246 249 253 255 255 257
124 136 272 271 273 240 203 222 226 197 212 211 200 198 207 212 216 213 208 203 205 197 199 200 196 212 228 196 215 235 209 206 320 360 9 64 228 242 226 221 231 239 243 250 248 249 251 251 241
133 163 244 280 344 210 193 178 326 203 232 237 213 211 218 198 199 202 198 196 202 201 201 196 191 210 206 217 209 177 168 203 140 177 198 227 201 252 245 233 244 254 262 261 256 247 249 246 223
171 207 198 294 344 81 341 122 325 189 247 261 225 219 214 208 198 196 199 198 193 195 194 188 184 197 171 177 161 163 174 154 156 143 142 153 189 222 246 258 263 268 266 267 262 251 237 242 216
197 209 188 263 308 20 351 293 246 314 315 325 284 213 214 208 200 196 198 196 192 187 182 180 180 174 172 169 169 159 156 145 153 138 132 129 152 284 277 278 283 280 271 263 260 246 237 229 214
105 111 133 95 90 211 31 272 266 243 240 342 354 214 222 208 192 200 198 185 183 173 174 174 176 174 177 167 165 160 150 140 139 134 130 157 289 342 342 335 310 291 276 261 258 252 240 236 224
142 109 74 77 120 236 43 289 200 305 337 316 329 263 225 196 192 196 183 161 167 175 174 170 173 169 175 172 161 161 158 150 149 146 148 130 106 58 29 10 1 356 340 273 282 281 266 242 234
142 156 224 233 208 238 140 242 264 282 327 289 294 291 218 180 178 181 176 166 166 182 184 181 177 167 169 172 174 167 160 152 145 136 122 102 67 50 30 26 23 19 1 348 334 306 288 261 240
162 216 212 236 215 168 154 228 180 78 303 312 280 257 237 183 184 181 181 164 170 182 176 180 181 173 174 171 174 166 152 146 126 110 98 75 54 40 32 34 30 27 19 5 34 33 356 261 245
157 179 86 109 99 252 312 258 277 138 238 10 28 84 191 208 185 161 154 159 169 173 183 181 186 181 180 173 167 150 138 135 117 106 95 85 64 43 38 42 36 34 35 47 65 75 59 77 68
239 136 154 140 178 221 197 274 259 274 234 63 82 24 2 279 95 130 145 155 176 177 181 174 177 181 173 167 156 137 135 127 121 112 98 80 59 49 53 56 50 44 36 45 67 67 61 67 59
144 172 68 105 324 195 219 233 221 261 265 128 33 360 6 30 84 161 160 167 176 172 160 157 141 147 169 150 132 141 140 129 120 102 95 86 74 65 70 71 66 59 47 54 69 69 71 67 65
189 190 172 195 187 102 296 225 47 221 221 127 79 32 45 47 127 149 163 161 176 165 156 143 137 142 144 146 150 147 141 140 129 115 100 88 81 72 72 75 77 75 69 67 67 69 72 70 65